User: anonymous   Login
Location: Unspecified
(0.0000°N, 0.0000°E)
Time: 22:48:31
(UTC+00:00)
Language:

Kosmos-2004 - Orbit

View from above orbital plane
View from above orbital plane
View from above satellite
View from above satellite

Ground track
Ground track

The orbit data is extracted from the following two-line orbital elements,

1 19826U 89017A   17113.91331554 +.00000027 +00000-0 +12846-4 0  9999
2 19826 082.9544 224.0261 0030625 168.7118 321.7549 13.72234677410205
Epoch (UTC): 23 April 2017 21:55:10
Eccentricity: 0.0030625
inclination: 82.9544°
perigee height: 969 km
apogee height: 1014 km
right ascension of ascending node: 224.0261°
argument of perigee: 168.7118°
revolutions per day: 13.72234677
mean anomaly at epoch: 321.7549°
orbit number at epoch: 41020

The dashed part of the orbit path shows where the satellite is in the earth's shadow,  

DLR